Location: Newark
(40.9833°N, 0.0333°W)
Time: 09:38:52
(UTC+00:00)

Transit 4A - Pass Details

Date: 05 November 2020
Orbit: 862 x 982 km, 66.8° (Epoch: 26 November)

Event Time Altitude Azimuth Distance (km) Brightness Sun altitude
Rises 21:58:21 0° 331° (NNW) 3,691 11.5 -56.2°
Enters shadow 21:59:03 - 332° (NNW) 3,433 11.3 -56.3°
Reaches altitude 10° 22:00:57 10° 333° (NNW) 2,735 - -56.6°
Maximum altitude 22:07:22 75° 59° (ENE) 1,002 - -57.5°
Drops below altitude 10° 22:13:36 10° 145° (SE) 2,662 - -58.3°
Sets 22:16:07 0° 147° (SSE) 3,586 - -58.7°
